timestamp,surface_pressure_avg,surface_temp_avg,battery_voltage,lat,long
2018-05-06 00:00:00+00:00,238.4931,4.25,12.89,47.84626,-54.09684
2018-05-06 00:10:00+00:00,248.3514,4.26,12.81,47.84626,-54.09684
2018-05-06 00:20:00+00:00,265.6864,4.28,12.89,47.84626,-54.09684
2018-05-06 00:30:00+00:00,282.7313,4.27,12.97,47.84626,-54.09684
2018-05-06 00:40:00+00:00,285.9431,4.24,12.97,47.84626,-54.09684
2018-05-06 00:50:00+00:00,283.5114,4.2,12.97,47.84626,-54.09684
2018-05-06 01:00:00+00:00,288.8848,4.2,12.89,47.84626,-54.09684
2018-05-06 01:10:00+00:00,307.4946,4.2,12.81,47.84626,-54.09684
2018-05-06 01:20:00+00:00,309.0096,4.2,12.89,47.84626,-54.09684
2018-05-06 01:30:00+00:00,302.2097,4.2,12.97,47.84626,-54.09684
2018-05-06 01:40:00+00:00,312.5864,4.2,12.97,47.84626,-54.09684
2018-05-06 01:50:00+00:00,328.8496,4.2,12.97,47.84626,-54.09684
2018-05-06 02:00:00+00:00,319.9997,4.2,12.89,47.84626,-54.09684
2018-05-06 02:10:00+00:00,313.5214,4.2,12.81,47.84626,-54.09684
2018-05-06 02:20:00+00:00,328.7313,4.2,12.89,47.84626,-54.09684
2018-05-06 02:30:00+00:00,328.1113,4.2,12.89,47.84626,-54.09684
2018-05-06 02:40:00+00:00,314.7847,4.2,12.97,47.84626,-54.09684
2018-05-06 02:50:00+00:00,324.0863,4.2,12.97,47.84626,-54.09684
2018-05-06 03:00:00+00:00,334.038,4.2,12.89,47.84626,-54.09684
2018-05-06 03:10:00+00:00,322.1929,4.2,12.81,47.84626,-54.09684
2018-05-06 03:20:00+00:00,313.7997,4.2,12.89,47.84626,-54.09684
2018-05-06 03:30:00+00:00,321.533,4.2,12.89,47.84626,-54.09684
2018-05-06 03:40:00+00:00,321.0696,4.2,12.97,47.84626,-54.09684
2018-05-06 03:50:00+00:00,313.2463,4.2,12.97,47.84626,-54.09684
2018-05-06 04:00:00+00:00,319.3263,4.2,12.89,47.84626,-54.09684
2018-05-06 04:10:00+00:00,328.1647,4.2,12.81,47.84626,-54.09684
2018-05-06 04:20:00+00:00,318.2463,4.2,12.89,47.84626,-54.09684
2018-05-06 04:30:00+00:00,312.1847,4.2,12.89,47.84626,-54.09684
2018-05-06 04:40:00+00:00,321.3781,4.2,12.97,47.84626,-54.09684
2018-05-06 04:50:00+00:00,320.813,4.2,12.97,47.84626,-54.09684
2018-05-06 05:00:00+00:00,304.6647,4.2,12.89,47.84626,-54.09684
2018-05-06 05:10:00+00:00,308.9097,4.2,12.81,47.84626,-54.09684
2018-05-06 05:20:00+00:00,313.5147,4.2,12.89,47.84626,-54.09684
2018-05-06 05:30:00+00:00,301.738,4.2,12.89,47.84626,-54.09684
2018-05-06 05:40:00+00:00,289.4997,4.2,12.97,47.84626,-54.09684
2018-05-06 05:50:00+00:00,293.4763,4.2,12.97,47.84626,-54.09684
2018-05-06 06:00:00+00:00,287.958,4.2,12.89,47.84626,-54.09684
2018-05-06 06:10:00+00:00,281.7064,4.1,12.81,47.84626,-54.09684
2018-05-06 06:20:00+00:00,286.3714,4.1,12.89,47.84626,-54.09684
2018-05-06 06:30:00+00:00,288.1414,4.13,12.89,47.84626,-54.09684
2018-05-06 06:40:00+00:00,280.6714,4.14,12.97,47.84626,-54.09684
2018-05-06 06:50:00+00:00,273.6481,4.16,12.97,47.84626,-54.09684
2018-05-06 07:00:00+00:00,266.9597,4.1,12.89,47.84626,-54.09684
2018-05-06 07:10:00+00:00,258.2297,4.1,12.81,47.84626,-54.09684
2018-05-06 07:20:00+00:00,255.1964,4.1,12.89,47.84626,-54.09684
2018-05-06 07:30:00+00:00,252.9731,4.1,12.89,47.84626,-54.09684
2018-05-06 07:40:00+00:00,244.1698,4.1,12.97,47.84626,-54.09684
2018-05-06 07:50:00+00:00,231.4981,4.1,12.97,47.84626,-54.09684
2018-05-06 08:00:00+00:00,227.4798,4.11,12.89,47.84626,-54.09684
2018-05-06 08:10:00+00:00,227.8814,4.12,12.81,47.84626,-54.09684
2018-05-06 08:20:00+00:00,222.5114,4.13,12.89,47.84626,-54.09684
2018-05-06 08:30:00+00:00,214.7431,4.13,12.89,47.84626,-54.09684
2018-05-06 08:40:00+00:00,212.0981,4.13,12.97,47.84626,-54.09684
2018-05-06 08:50:00+00:00,205.2931,4.13,12.97,47.84626,-54.09684
2018-05-06 09:00:00+00:00,202.4048,4.12,12.97,47.84626,-54.09684
2018-05-06 09:10:00+00:00,206.3331,4.11,12.97,47.84626,-54.09684
2018-05-06 09:20:00+00:00,203.4381,4.1,13.13,47.84626,-54.09684
2018-05-06 09:30:00+00:00,195.8414,4.12,13.29,47.84626,-54.09684
2018-05-06 09:40:00+00:00,199.9847,4.12,13.53,47.84626,-54.09684
2018-05-06 09:50:00+00:00,210.3798,4.14,13.76,47.84626,-54.09684
2018-05-06 10:00:00+00:00,207.4514,4.15,13.92,47.84626,-54.09684
2018-05-06 10:10:00+00:00,205.7015,4.17,14.08,47.84626,-54.09684
2018-05-06 10:20:00+00:00,218.2114,4.17,14.4,47.84626,-54.09684
2018-05-06 10:30:00+00:00,225.9248,4.18,14.56,47.84626,-54.09684
2018-05-06 10:40:00+00:00,217.2465,4.19,14.88,47.84626,-54.09684
2018-05-06 10:50:00+00:00,214.9631,4.2,14.8,47.84626,-54.09684
2018-05-06 11:00:00+00:00,228.0514,4.2,14.56,47.84626,-54.09684
2018-05-06 11:10:00+00:00,237.5181,4.2,14.48,47.84626,-54.09684
2018-05-06 11:20:00+00:00,239.0314,4.2,14.72,47.84626,-54.09684
2018-05-06 11:30:00+00:00,237.0198,4.2,14.64,47.84626,-54.09684
2018-05-06 11:40:00+00:00,245.3514,4.2,14.72,47.84626,-54.09684
2018-05-06 11:50:00+00:00,252.5664,4.22,14.72,47.84626,-54.09684
2018-05-06 12:00:00+00:00,249.9565,4.26,14.56,47.84626,-54.09684
2018-05-06 12:10:00+00:00,253.0314,4.28,14.56,47.84626,-54.09684
2018-05-06 12:20:00+00:00,259.2997,4.3,14.72,47.84626,-54.09684
2018-05-06 12:30:00+00:00,258.2131,4.3,14.64,47.84626,-54.09684
2018-05-06 12:40:00+00:00,257.1431,4.3,14.72,47.84626,-54.09684
2018-05-06 12:50:00+00:00,268.0414,4.3,14.72,47.84626,-54.09684
2018-05-06 13:00:00+00:00,271.6047,4.3,14.48,47.84626,-54.09684
2018-05-06 13:10:00+00:00,271.278,4.3,14.4,47.84626,-54.09684
2018-05-06 13:20:00+00:00,274.798,4.3,14.64,47.84626,-54.09684
2018-05-06 13:30:00+00:00,282.1931,4.31,14.64,47.84626,-54.09684
2018-05-06 13:40:00+00:00,281.3698,4.32,14.64,47.84626,-54.09684
2018-05-06 13:50:00+00:00,285.9881,4.36,14.72,47.84626,-54.09684
2018-05-06 14:00:00+00:00,293.3446,4.4,14.56,47.84626,-54.09684
2018-05-06 14:10:00+00:00,293.2247,4.4,14.4,47.84626,-54.09684
2018-05-06 14:20:00+00:00,287.7964,4.4,14.64,47.84626,-54.09684
2018-05-06 14:30:00+00:00,294.4314,4.4,14.32,47.84626,-54.09684
2018-05-06 14:40:00+00:00,305.7081,4.3,14.56,47.84626,-54.09684
2018-05-06 14:50:00+00:00,303.688,4.28,14.64,47.84626,-54.09684
2018-05-06 15:00:00+00:00,298.6263,4.25,14.4,47.84626,-54.09684
2018-05-06 15:10:00+00:00,302.138,4.2,14.48,47.84626,-54.09684
2018-05-06 15:20:00+00:00,307.3231,4.19,14.4,47.84626,-54.09684
2018-05-06 15:30:00+00:00,306.6747,4.18,14.4,47.84626,-54.09684
2018-05-06 15:40:00+00:00,300.4496,4.2,14.32,47.84626,-54.09684
2018-05-06 15:50:00+00:00,297.3997,4.2,14.24,47.84626,-54.09684
2018-05-06 16:00:00+00:00,303.4697,4.23,14.24,47.84626,-54.09684
2018-05-06 16:10:00+00:00,308.1863,4.3,14.08,47.84626,-54.09684
2018-05-06 16:20:00+00:00,305.6163,4.4,14.24,47.84626,-54.09684
2018-05-06 16:30:00+00:00,305.848,4.4,14.24,47.84626,-54.09684
2018-05-06 16:40:00+00:00,313.7013,4.3,14.4,47.84626,-54.09684
2018-05-06 16:50:00+00:00,314.6562,4.43,14.4,47.84626,-54.09684
2018-05-06 17:00:00+00:00,309.0497,4.57,14.24,47.84626,-54.09684
2018-05-06 17:10:00+00:00,314.5181,4.6,14.16,47.84626,-54.09684
2018-05-06 17:20:00+00:00,318.8214,4.5,14.24,47.84626,-54.09684
2018-05-06 17:30:00+00:00,314.3464,4.55,14.24,47.84626,-54.09684
2018-05-06 17:40:00+00:00,308.8931,4.58,14.16,47.84626,-54.09684
2018-05-06 17:50:00+00:00,309.8097,4.58,14.16,47.84626,-54.09684
2018-05-06 18:00:00+00:00,307.3297,4.5,14.0,47.84626,-54.09684
2018-05-06 18:10:00+00:00,296.9347,4.51,13.92,47.84626,-54.09684
2018-05-06 18:20:00+00:00,290.1013,4.5,13.92,47.84626,-54.09684
2018-05-06 18:30:00+00:00,291.7798,4.4,13.92,47.84626,-54.09684
2018-05-06 18:40:00+00:00,288.588,4.35,13.92,47.84626,-54.09684
2018-05-06 18:50:00+00:00,282.828,4.38,13.92,47.84626,-54.09684
2018-05-06 19:00:00+00:00,276.2097,4.4,13.84,47.84626,-54.09684
2018-05-06 19:10:00+00:00,271.9064,4.4,13.68,47.84626,-54.09684
2018-05-06 19:20:00+00:00,265.2748,4.39,13.76,47.84626,-54.09684
2018-05-06 19:30:00+00:00,263.3548,4.39,13.76,47.84626,-54.09684
2018-05-06 19:40:00+00:00,259.5181,4.4,13.76,47.84626,-54.09684
2018-05-06 19:50:00+00:00,249.9447,4.44,13.84,47.84626,-54.09684
2018-05-06 20:00:00+00:00,242.9797,4.51,13.68,47.84626,-54.09684
2018-05-06 20:10:00+00:00,240.8214,4.6,13.6,47.84626,-54.09684
2018-05-06 20:20:00+00:00,235.7265,4.67,13.68,47.84626,-54.09684
2018-05-06 20:30:00+00:00,227.818,4.7,13.68,47.84626,-54.09684
2018-05-06 20:40:00+00:00,224.3648,4.7,13.68,47.84626,-54.09684
2018-05-06 20:50:00+00:00,224.5531,4.6,13.68,47.84626,-54.09684
2018-05-06 21:00:00+00:00,225.3748,4.6,13.6,47.84626,-54.09684
2018-05-06 21:10:00+00:00,224.5064,4.7,13.53,47.84626,-54.09684
2018-05-06 21:20:00+00:00,222.9731,4.8,13.53,47.84626,-54.09684
2018-05-06 21:30:00+00:00,223.828,4.8,13.53,47.84626,-54.09684
2018-05-06 21:40:00+00:00,225.4898,4.89,13.6,47.84626,-54.09684
2018-05-06 21:50:00+00:00,224.6381,4.9,13.6,47.84626,-54.09684
2018-05-06 22:00:00+00:00,222.6714,4.9,13.53,47.84626,-54.09684
2018-05-06 22:10:00+00:00,226.6281,4.9,13.37,47.84626,-54.09684
2018-05-06 22:20:00+00:00,229.3631,4.9,13.37,47.84626,-54.09684
2018-05-06 22:30:00+00:00,226.0831,4.9,13.37,47.84626,-54.09684
2018-05-06 22:40:00+00:00,229.3514,4.9,13.29,47.84626,-54.09684
2018-05-06 22:50:00+00:00,240.1914,4.83,13.29,47.84626,-54.09684
2018-05-06 23:00:00+00:00,244.6714,4.8,13.21,47.84626,-54.09684
2018-05-06 23:10:00+00:00,243.5397,4.8,13.13,47.84626,-54.09684
2018-05-06 23:20:00+00:00,247.3181,4.8,13.21,47.84626,-54.09684
2018-05-06 23:30:00+00:00,255.6747,4.8,13.21,47.84626,-54.09684
2018-05-06 23:40:00+00:00,257.7964,4.8,13.21,47.84626,-54.09684
2018-05-06 23:50:00+00:00,255.3997,4.8,13.21,47.84626,-54.09684
